GW0092 Weather Reports


time (UTC)temp
F
wind
direction
speed
knots
gust
knots
rain 1hr
in
rain 24hr
in
rain mn
in
humidity
%
barometer
mb
20260906211601 78 256 0.9 5.2 0.00 0.00 0.00 73 1014.7
20260906204606 79 87 0.9 4.3 0.00 0.00 0.00 74 1014.4
20260906203100 79 244 0.9 5.2 0.00 0.00 0.00 73 1014.3
20260906201557 79 0 1.7 9.6 0.00 0.00 0.00 71 1014.3
20260906200055 79 176 0.9 4.3 0.00 0.00 0.00 73 1014.2
20260906194601 79 354 2.6 5.2 0.00 0.00 0.00 71 1014.3
20260906193100 79 248 1.7 5.2 0.00 0.00 0.00 74 1014.3
20260906191559 78 215 0.9 6.1 0.00 0.00 0.00 75 1014.2
20260906190103 78 30 1.7 7.8 0.00 0.00 0.00 75 1014.4
20260906184608 78 335 0.9 6.1 0.00 0.00 0.00 76 1014.6
20260906183056 78 325 2.6 7.8 0.00 0.00 0.00 76 1014.7
20260906181605 78 295 0.9 5.2 0.00 0.00 0.00 79 1014.7
20260906180105 78 332 2.6 7.0 0.00 0.00 0.00 77 1014.7
20260906174601 78 167 1.7 5.2 0.00 0.00 0.00 79 1014.6
20260906173103 78 40 2.6 10.4 0.00 0.00 0.00 75 1014.6
20260906171602 78 300 1.7 9.6 0.00 0.00 0.00 77 1014.6
20260906164612 78 24 0.9 7.8 0.00 0.00 0.00 75 1014.5
20260906163110 78 254 1.7 5.2 0.00 0.00 0.00 77 1014.7
20260906161609 77 297 1.7 6.1 0.00 0.00 0.00 74 1014.7
20260906160105 78 0 0.9 4.3 0.00 0.00 0.00 76 1014.8
20260906154600 76 307 0.9 7.0 0.00 0.00 0.00 77 1014.7
20260906153103 78 34 2.6 6.1 0.00 0.00 0.00 74 1014.9
20260906151608 77 326 0.9 5.2 0.00 0.00 0.00 76 1014.7
20260906150107 76 312 2.6 6.1 0.00 0.00 0.00 78 1014.5
20260906144626 77 321 1.7 4.3 0.00 0.00 0.00 78 1014.3
20260906143115 76 4 3.5 7.0 0.00 0.00 0.00 79 1014.4
20260906141605 76 345 1.7 7.0 0.00 0.00 0.00 83 1014.1
20260906140107 75 6 1.7 4.3 0.00 0.00 0.00 83 1014.0
20260906134600 74 274 1.7 5.2 0.00 0.00 0.00 85 1014.0
20260906133108 72 302 1.7 6.1 0.00 0.00 0.00 88 1013.9
20260906131603 70 337 1.7 7.0 0.00 0.00 0.00 94 1013.9
20260906130106 69 352 0.9 3.5 0.00 0.00 0.00 98 1013.9
20260906124605 67 335 0.9 2.6 0.00 0.00 0.00 99 1013.9
20260906123107 66 328 0.9 2.6 0.00 0.00 0.00 100 1013.9
20260906121556 64 0 0.0 0.9 0.00 0.00 0.00 100 1013.7
20260906120053 63 297 0.0 0.9 0.00 0.00 0.00 100 1013.6
20260906114606 62 0 0.0 0.0 0.00 0.00 0.00 100 1013.5
20260906113100 61 0 0.0 0.0 0.00 0.00 0.00 100 1013.3
20260906111556 61 0 0.0 0.0 0.00 0.00 0.00 100 1013.1
20260906110108 61 0 0.0 0.0 0.00 0.00 0.00 99 1013.1
20260906104605 61 0 0.0 0.0 0.00 0.00 0.00 99 1013.0
20260906103103 61 0 0.0 0.0 0.00 0.00 0.00 99 1012.8
20260906101600 61 0 0.0 0.0 0.00 0.00 0.00 99 1012.4
20260906094559 62 0 0.0 0.0 0.00 0.00 0.00 99 1012.2
20260906093118 62 0 0.0 0.0 0.00 0.00 0.00 99 1012.0
20260906091606 62 0 0.0 0.0 0.00 0.00 0.00 99 1011.9
20260906090122 62 0 0.0 0.0 0.00 0.00 0.00 99 1011.8
20260906084558 62 0 0.0 0.0 0.00 0.00 0.00 99 1011.8
20260906083103 63 0 0.0 0.0 0.00 0.00 0.00 99 1011.8
20260906081601 63 0 0.0 0.0 0.00 0.00 0.00 99 1011.5
20260906080104 63 0 0.0 0.0 0.00 0.00 0.00 99 1011.5
20260906074600 63 0 0.0 0.0 0.00 0.00 0.00 99 1011.4
20260906073114 63 0 0.0 0.0 0.00 0.00 0.00 99 1011.3
20260906071610 63 0 0.0 0.0 0.00 0.00 0.00 99 1011.3
20260906070059 63 0 0.0 0.0 0.00 0.00 0.00 99 1011.3
20260906064604 63 0 0.0 0.0 0.00 0.00 0.00 99 1011.3
20260906063103 64 0 0.0 0.0 0.00 0.00 0.00 99 1011.4
20260906061604 64 0 0.0 0.0 0.00 0.00 0.00 99 1011.4
20260906060100 64 0 0.0 0.0 0.00 0.00 0.00 99 1011.6
20260906054603 64 0 0.0 0.0 0.00 0.00 0.00 99 1011.7
20260906053058 64 0 0.0 0.9 0.00 0.00 0.00 99 1011.8
20260906051606 64 0 0.0 0.0 0.00 0.00 0.00 98 1012.0
20260906050132 64 0 0.0 0.9 0.00 0.00 0.00 98 1011.9
20260906044559 64 0 0.0 0.0 0.00 0.00 0.00 98 1012.2
20260906043111 64 0 0.0 0.0 0.00 0.00 0.00 98 1012.2
20260906041602 64 0 0.0 0.0 0.00 0.00 0.00 98 1012.2
20260906040112 64 0 0.0 0.0 0.00 0.00 0.00 97 1012.3
20260906034558 65 0 0.0 0.0 0.00 0.00 0.00 97 1012.5
20260906033108 65 0 0.0 0.0 0.00 0.00 0.00 97 1012.4
20260906031602 65 0 0.0 0.0 0.00 0.00 0.00 97 1012.5
20260906030134 65 0 0.0 0.0 0.00 0.00 0.00 96 1012.4
20260906024557 66 0 0.0 0.0 0.00 0.00 0.00 96 1012.4
20260906023124 66 0 0.0 0.0 0.00 0.00 0.00 96 1012.4
20260906021612 66 0 0.0 0.0 0.00 0.00 0.00 95 1012.3
20260906020107 67 0 0.0 0.0 0.00 0.00 0.00 95 1012.4
20260906014623 67 0 0.0 0.0 0.00 0.00 0.00 95 1012.2
20260906013101 68 0 0.0 0.0 0.00 0.00 0.00 95 1011.9
20260906011606 68 0 0.0 0.0 0.00 0.00 0.00 94 1011.8
20260906010058 68 0 0.0 0.0 0.00 0.00 0.00 94 1011.6
20260906004556 69 0 0.0 0.0 0.00 0.00 0.00 93 1011.5
20260906003109 69 0 0.0 0.0 0.00 0.00 0.00 92 1011.6
20260906001603 70 0 0.0 0.0 0.00 0.00 0.00 90 1011.5
20260906000059 71 0 0.0 0.0 0.00 0.00 0.00 88 1011.2
20260905234618 72 0 0.0 0.0 0.00 0.00 0.00 87 1011.0
20260905233103 73 0 0.0 0.0 0.00 0.00 0.00 84 1011.0
20260905231602 74 0 0.0 0.0 0.00 0.00 0.00 82 1011.1
20260905230100 76 298 0.0 0.9 0.00 0.00 0.00 77 1011.1
20260905224610 77 354 0.9 2.6 0.00 0.00 0.00 74 1010.9
20260905223102 77 295 0.9 3.5 0.00 0.00 0.00 75 1010.8
20260905221603 77 338 0.9 2.6 0.00 0.00 0.00 75 1010.7
20260905220056 78 351 0.9 2.6 0.00 0.00 0.00 74 1010.6
20260905214611 78 311 0.0 4.3 0.00 0.00 0.00 76 1010.4
20260905213111 79 340 2.6 5.2 0.00 0.00 0.00 74 1010.3